Location: Mascot Post Office (historical)
(40.2645°N, 99.5462°W)
Time: 17:16:54
(UTC+00:00)

USA 238 DEB - Pass Details

Date: 14 July 2020
Orbit: 1012 x 1200 km, 63.4° (Epoch: 02 August)

Event Time Altitude Azimuth Distance (km) Brightness Sun altitude
Exits shadow 10:08:12 14° 210° (SSW) 2,511 5.1 -12.1°
Maximum altitude 10:14:00 87° 122° (ESE) 1,045 3.7 -11.2°
Drops below altitude 10° 10:20:52 10° 35° (NE) 2,905 7.4 -10.2°
Sets 10:23:34 0° 35° (NE) 3,891 8.4 -9.8°
